Theta_e
295 291 289 290 288 288 285 284 283 285 290 288 288 289 287 289 285 282 280 280 280 281 283 283 283 282 283 283 283 284 285 285 285 285 283 283 282 283 284 284 285 285 288 289
291 288 292 292 290 288 286 285 284 287 289 287 286 286 288 288 286 285 282 280 280 281 281 282 282 281 282 282 283 284 284 285 284 284 283 283 282 281 281 282 282 282 283 283
289 291 292 290 287 286 285 284 284 284 285 285 284 282 287 285 285 282 282 282 281 281 281 281 282 279 280 281 282 284 284 284 283 283 283 282 281 281 280 280 279 280 281 281
288 290 289 287 287 288 283 286 285 284 281 277 281 276 281 280 283 281 282 279 279 280 281 281 281 279 279 282 282 282 283 284 284 282 280 278 277 276 278 278 279 279 280 280
290 286 286 286 287 288 285 285 284 282 280 277 279 276 280 280 280 280 281 279 278 279 280 280 281 282 282 283 281 281 282 282 282 281 279 278 277 277 278 278 277 277 278 279
289 289 287 287 288 287 287 285 283 280 278 273 278 277 276 276 280 282 282 279 279 279 279 281 282 282 282 281 281 281 281 281 281 279 278 277 276 276 276 275 275 275 276 278
286 286 286 288 285 286 285 280 276 273 271 275 276 275 283 282 281 283 282 279 279 279 279 280 280 280 280 280 280 281 280 279 279 278 278 277 276 276 275 275 275 274 275 275
282 281 285 287 286 284 283 281 276 270 271 278 277 275 279 279 280 282 282 280 278 278 279 279 280 280 279 280 280 279 279 279 279 278 277 277 276 276 276 275 274 274 274 274
281 281 283 283 284 284 281 278 281 275 262 266 274 277 281 277 277 277 277 278 277 278 278 279 280 280 279 279 279 279 278 278 278 277 276 275 275 275 274 274 274 274 274 274
285 281 281 280 282 281 281 282 276 275 270 267 273 274 279 275 275 276 276 277 277 278 279 279 279 280 279 279 279 278 278 276 276 276 275 274 274 274 274 274 274 273 274 273
283 283 279 279 278 280 276 276 277 278 278 272 271 279 279 278 279 276 277 278 277 278 279 279 279 279 279 278 277 276 275 275 275 275 274 273 273 273 274 273 273 273 273 273
284 281 277 277 279 279 278 280 280 276 273 276 274 278 280 281 281 280 278 278 278 278 278 278 278 278 277 276 276 275 274 274 274 273 272 272 272 272 272 272 273 273 272 273
283 279 273 278 277 276 276 277 280 278 278 276 271 278 279 278 278 279 277 277 278 278 277 277 277 276 276 275 274 273 272 272 273 271 271 270 270 271 271 272 272 272 271 271
289 280 281 280 282 279 275 274 277 280 277 277 277 279 284 280 277 276 276 277 277 277 277 277 275 275 274 274 272 271 272 271 271 270 269 269 269 270 271 271 271 270 270 269
284 279 279 284 285 280 282 282 276 276 279 278 281 282 285 288 284 277 278 277 276 276 277 275 275 273 272 272 271 271 271 270 270 268 268 268 270 270 270 270 269 269 269 269
280 279 279 278 281 280 279 282 282 281 282 281 281 280 288 288 281 276 276 276 277 276 276 276 275 274 273 272 271 271 269 268 269 267 268 269 269 270 269 268 268 267 267 267
277 278 278 278 280 278 274 279 280 282 283 282 277 283 287 283 277 276 276 277 277 276 276 275 273 272 271 270 271 268 268 268 267 267 267 267 268 267 267 266 265 265 266 267
279 279 279 277 276 271 284 279 281 280 282 283 282 283 282 278 276 277 278 277 276 275 274 273 271 270 269 269 269 267 268 267 267 266 266 266 265 264 264 264 263 264 266 267
287 284 280 276 276 279 283 284 276 275 280 281 282 283 283 276 275 273 276 275 274 273 273 272 271 270 269 268 267 266 266 265 265 264 264 264 264 262 262 261 262 265 265 266
284 284 281 274 271 272 284 275 277 279 274 283 282 282 275 276 271 272 274 274 273 272 271 270 269 269 267 266 266 264 264 263 262 263 263 263 262 260 260 263 263 264 265 266
275 277 276 278 276 274 281 276 278 273 280 278 279 278 276 276 276 275 275 272 272 271 269 269 268 266 265 265 265 262 262 261 262 262 261 260 260 260 263 263 263 264 264 266
275 273 272 276 271 271 280 275 276 280 277 277 276 277 277 275 274 275 274 271 270 268 268 268 266 265 265 264 262 261 260 261 261 260 258 258 259 262 262 261 262 263 263 264
278 281 276 277 277 281 281 278 282 280 278 277 278 278 278 275 274 274 272 270 269 268 268 266 264 263 263 263 262 259 260 260 259 256 255 257 261 261 261 261 261 261 262 263
277 282 280 278 284 281 279 281 282 281 280 280 280 279 278 277 275 273 272 270 268 267 266 264 263 262 261 261 260 259 258 257 254 253 256 259 260 260 261 261 262 261 261 262
283 282 281 280 283 282 284 281 281 281 281 279 279 279 279 278 276 273 271 269 268 266 264 263 261 260 259 259 258 258 257 254 253 255 257 258 259 259 260 261 261 262 263 265
282 284 280 282 285 286 285 282 282 280 279 280 279 276 276 278 275 273 270 268 266 264 262 261 260 258 258 257 256 255 253 252 251 253 255 256 257 258 259 259 259 264 266 267
Wind_Speed
3 4 5 8 6 4 3 5 8 5 5 4 11 18 12 16 8 10 10 10 9 9 7 7 5 5 5 5 5 6 7 8 7 6 9 9 10 10 10 10 15 18 15 17
6 3 5 3 3 4 5 6 8 10 4 5 10 12 10 16 21 21 17 11 10 6 8 7 4 5 4 3 3 6 7 5 4 4 6 6 9 7 9 9 13 15 17 17
6 3 6 3 3 4 4 6 6 8 4 6 9 8 19 3 8 7 9 10 8 10 9 7 4 3 2 4 4 5 6 5 5 4 6 7 8 8 8 11 11 11 16 18
6 1 4 5 5 7 6 3 5 4 4 4 4 11 4 6 16 12 14 10 10 9 8 6 4 1 2 4 4 5 6 6 5 4 5 7 9 13 11 12 12 14 16 18
8 6 5 6 7 7 8 1 4 3 4 3 7 6 7 4 10 15 17 14 10 10 9 8 6 4 4 5 6 5 7 6 5 4 3 5 10 11 12 12 16 16 15 15
6 0 5 6 2 1 2 4 4 3 3 2 8 9 6 8 12 10 15 13 12 9 9 7 5 4 6 6 6 6 8 6 6 4 5 6 11 13 13 15 14 13 13 12
1 4 1 3 2 2 3 5 6 6 2 9 3 4 17 8 7 12 23 17 13 10 9 7 6 6 6 7 7 7 6 7 6 6 6 7 11 13 15 15 13 18 15 12
4 8 8 5 6 7 6 7 6 7 5 14 4 11 8 5 8 7 12 14 10 9 8 8 7 6 7 8 7 8 5 6 7 8 9 10 10 9 10 13 13 13 14 15
7 8 2 0 1 4 4 6 1 1 2 3 7 8 7 4 2 6 12 12 12 9 8 8 7 6 8 7 7 6 7 8 9 11 10 11 11 13 13 16 16 13 17 15
4 6 2 2 0 1 4 4 3 1 3 9 7 10 14 8 11 9 12 15 11 9 8 7 6 7 6 4 6 7 7 8 10 10 10 12 12 14 15 14 19 18 18 18
6 5 2 4 9 11 2 4 3 2 5 5 5 17 7 17 19 20 18 16 13 12 8 7 7 6 3 5 7 7 6 8 11 11 12 14 15 15 15 15 17 17 19 18
7 6 7 15 2 2 2 10 12 7 7 6 4 20 5 11 13 19 18 14 10 8 8 8 4 4 5 7 7 6 6 7 11 12 14 15 16 16 17 16 18 18 19 18
10 4 2 8 2 3 6 7 8 1 0 14 8 16 2 3 7 14 16 13 10 9 7 4 4 5 6 6 6 6 6 9 11 12 14 15 16 17 18 19 19 19 19 19
13 7 11 18 13 7 7 9 11 18 15 16 29 38 26 11 7 6 7 9 9 8 7 5 4 6 6 6 6 6 9 8 12 13 15 16 16 18 18 19 19 19 19 19
8 11 8 22 15 4 16 21 13 24 26 22 41 33 31 23 14 17 19 12 9 8 6 6 6 6 5 4 6 8 9 12 13 14 15 16 17 18 18 19 19 19 19 18
3 8 6 17 9 12 24 25 23 28 31 29 38 41 40 25 5 8 14 14 12 8 8 7 6 2 6 8 9 11 11 13 14 14 16 17 18 18 19 19 19 19 19 17
10 6 5 21 4 2 19 26 28 23 25 22 25 40 30 16 8 12 15 17 14 10 8 5 1 3 6 7 10 10 12 13 13 15 16 17 18 19 19 20 20 20 19 18
11 7 4 8 5 11 16 4 7 21 27 20 24 26 14 5 3 8 11 14 11 10 6 4 1 3 3 4 6 9 11 13 14 15 17 17 18 19 20 20 20 20 18 18
13 11 9 8 12 12 32 11 11 11 32 24 29 27 18 8 6 1 5 6 9 7 6 5 4 2 2 5 7 9 11 12 13 15 17 18 18 19 20 20 21 20 19 18
11 10 10 5 7 13 21 5 6 8 21 16 23 20 11 13 7 6 11 9 9 8 6 6 5 2 4 6 8 10 11 13 14 16 18 18 17 17 19 20 21 19 18 19
5 4 20 17 11 13 13 11 7 6 16 5 10 10 16 11 5 8 14 8 8 7 8 7 5 4 5 6 8 11 11 12 15 16 18 17 16 17 17 18 18 18 18 18
14 13 7 6 5 20 17 8 15 5 2 5 5 9 12 8 10 16 14 13 12 10 7 6 4 4 6 7 8 11 12 14 15 16 17 17 16 14 14 18 17 17 17 16
10 17 13 18 16 3 19 7 17 5 7 6 8 7 12 14 10 15 12 11 9 9 8 6 4 3 3 6 8 10 13 15 15 15 15 15 15 14 15 16 17 14 14 13
7 7 8 4 25 21 15 8 13 7 6 5 6 13 15 14 14 11 11 10 9 8 7 5 5 3 5 6 8 9 12 14 13 14 15 14 14 16 14 12 12 12 12 13
10 15 16 14 20 5 16 19 13 12 9 8 8 10 15 13 12 12 10 10 9 9 7 7 5 2 3 6 7 8 11 12 12 12 12 12 11 14 14 12 13 13 12 16
13 19 14 18 9 14 8 22 19 18 16 17 14 6 3 10 14 10 10 10 10 9 8 7 6 3 3 5 7 8 8 9 10 11 10 10 11 11 12 13 13 20 25 26
Wind_Direction
341 68 244 245 208 206 217 237 235 245 238 219 233 245 211 199 204 199 198 191 182 182 183 170 143 100 51 26 8 333 350 0 359 356 351 343 334 329 325 322 320 319 324 322
7 229 218 171 234 245 232 264 264 286 248 182 271 249 239 185 212 202 189 190 184 186 179 181 138 77 51 351 329 348 342 332 335 355 341 331 328 319 313 315 315 313 309 313
175 252 122 177 235 255 227 212 251 238 340 289 288 246 243 203 222 177 188 189 183 181 181 177 147 96 21 341 318 331 316 312 318 340 332 333 317 315 321 320 311 308 308 305
228 212 180 220 233 172 278 216 259 286 4 253 344 293 262 193 224 200 187 192 186 185 177 166 158 192 267 285 286 307 302 290 311 326 328 322 329 319 312 309 306 309 306 301
253 175 187 217 226 163 237 13 267 261 255 349 236 255 247 149 240 211 195 191 189 191 172 172 179 219 259 268 265 277 276 276 280 274 287 328 312 301 301 305 302 303 300 292
246 279 183 210 141 146 38 327 294 54 112 235 232 196 226 193 218 195 196 189 189 182 181 179 195 219 247 264 265 264 256 265 272 316 313 290 291 301 305 303 298 306 301 293
328 219 39 151 128 28 87 55 313 333 347 238 169 227 259 242 228 197 193 181 186 180 177 190 210 227 253 256 250 259 280 274 325 319 291 284 292 298 293 299 300 305 297 298
209 303 176 181 198 183 177 171 173 263 241 294 321 247 254 289 296 218 173 166 171 179 185 199 216 232 250 252 252 257 278 310 314 312 305 307 290 290 287 297 296 289 288 296
175 264 115 67 167 156 180 187 168 235 98 13 238 281 285 77 53 116 150 167 184 188 194 209 222 233 246 238 258 322 320 315 314 316 312 302 296 300 294 300 295 290 287 287
213 288 214 171 161 344 162 158 75 338 280 271 258 269 247 200 206 184 185 193 196 196 202 209 228 248 260 301 310 309 292 295 310 309 303 305 302 299 297 299 296 292 288 287
144 169 177 116 208 182 145 213 204 205 158 234 302 276 212 194 203 191 201 195 190 194 197 208 230 268 292 286 283 277 295 303 311 312 311 310 303 303 300 298 294 291 292 288
195 165 203 211 231 306 207 201 175 183 218 222 240 260 198 202 201 195 201 192 190 187 193 208 233 263 255 264 280 290 296 304 317 317 314 308 304 307 302 298 295 297 291 289
178 212 332 319 5 346 221 208 213 331 334 223 238 269 221 160 160 195 187 181 184 183 190 223 249 258 268 278 283 292 311 320 315 314 311 308 308 307 302 302 300 299 295 292
147 187 182 237 233 135 209 193 205 215 235 255 238 265 255 242 194 185 190 182 185 183 192 222 258 265 261 264 285 317 323 320 319 315 311 308 310 306 304 303 302 302 298 293
168 230 194 249 262 182 264 253 192 219 235 235 262 262 265 265 230 201 198 181 175 181 198 210 238 244 247 301 336 336 328 323 319 313 311 309 309 306 303 308 304 303 299 296
196 253 154 267 215 231 257 259 241 242 247 248 254 267 266 280 223 144 179 173 177 186 194 213 224 307 348 353 341 332 320 318 319 313 312 312 311 312 311 310 309 306 301 298
165 177 144 256 111 34 272 244 233 245 242 230 243 244 265 256 186 179 173 175 177 180 191 197 154 2 3 348 332 317 317 315 318 317 315 313 316 314 314 314 311 306 303 300
165 179 160 258 98 236 265 112 191 219 248 220 246 254 239 184 138 145 163 158 166 172 165 164 114 33 356 323 322 321 319 320 319 318 314 319 317 316 315 315 313 305 304 307
218 194 225 226 224 303 290 228 175 177 270 200 226 243 247 122 80 1 149 145 156 149 156 150 102 59 335 343 337 322 317 324 322 319 319 318 318 316 315 315 311 312 310 307
212 233 213 162 207 224 264 120 137 138 275 190 205 226 145 144 183 202 172 138 137 146 149 118 95 67 26 351 336 328 330 329 318 323 316 315 314 312 311 313 315 311 309 305
156 200 219 232 243 268 224 156 154 150 259 163 177 160 157 186 196 147 143 138 146 151 127 110 89 46 13 353 347 337 330 318 323 319 313 314 313 310 315 318 312 315 314 311
167 166 194 207 219 262 141 115 190 201 47 132 135 160 165 132 128 141 148 152 153 138 123 106 90 44 15 0 355 333 323 329 321 318 313 312 310 320 323 320 318 322 316 316
194 194 179 193 209 210 181 188 205 156 155 179 155 153 146 143 157 159 160 150 137 137 130 114 84 37 10 7 355 325 326 328 322 316 309 311 321 328 329 327 323 325 325 326
244 185 229 105 246 226 203 207 189 175 171 164 151 152 160 163 158 154 146 142 144 140 134 115 87 49 357 3 344 329 330 328 318 310 313 324 333 332 334 331 328 327 331 326
188 159 210 248 265 360 225 214 186 179 164 152 143 162 173 152 162 152 146 148 142 138 133 123 115 94 19 349 335 339 333 321 318 318 321 330 335 335 332 339 332 335 338 338
180 200 191 226 192 207 228 196 193 183 177 168 160 148 154 156 156 148 149 145 142 144 136 125 119 106 41 351 340 335 322 316 310 320 331 335 336 336 335 335 335 339 350 354